This demonstration page uses our WeatherBlox Daily Observations layout. Learn more.

Left ArrowRight Arrow

38.20091, -84.87328

Hourly Observations for September 10, 2016

Temp ( °F °C ) Dew Point ( °F °C ) Humidity (%) Winds ( mph kmh ) Pressure ( in mb ) Visibility ( mi km ) Precip ( " mm )
12:53 am 00:53 Clear 76 24.4 69 20.6 79 79 SSW 7 11 29.94 1014 10 16 0.00 0.00
1:53 am 01:53 Clear 75 23.9 67 19.4 76 76 SW 3 6 29.94 1014 10 16 0.00 0.00
2:53 am 02:53 Clear 73 22.8 66 18.9 79 79 S 5 7 29.93 1014 10 16 0.00 0.00
3:53 am 03:53 Clear 73 22.8 66 18.9 79 79 S 5 7 29.92 1013 10 16 0.00 0.00
4:53 am 04:53 Clear 73 22.8 65 18.3 76 76 SSW 6 9 29.92 1013 10 16 0.00 0.00
5:53 am 05:53 Clear 73 22.8 64 17.8 74 74 S 6 9 29.93 1013 10 16 0.00 0.00
6:53 am 06:53 Clear 70 21.1 64 17.8 82 82 SW 5 7 29.94 1014 10 16 0.00 0.00
7:53 am 07:53 Sunny 72 22.2 64 17.8 76 76 S 6 9 29.96 1015 10 16 0.00 0.00
8:53 am 08:53 Sunny 73 22.8 64 17.8 74 74 SSW 8 13 29.96 1015 10 16 0.00 0.00
9:53 am 09:53 Mostly Cloudy 79 26.1 67 19.4 67 67 SW 13 20 29.97 1015 10 16 0.00 0.00
10:53 am 10:53 Sunny 82 27.8 68 20 63 63 SSW 10 17 29.95 1014 10 16 0.00 0.00
11:53 am 11:53 Partly Cloudy 85 29.4 68 20 57 57 SSW 13 20 29.94 1014 10 16 0.00 0.00
12:53 pm 12:53 Partly Cloudy 88 31.1 70 21.1 55 55 SW 15 24 29.92 1013 10 16 0.00 0.00
1:53 pm 13:53 Mostly Cloudy 88 31.1 70 21.1 55 55 SSW 17 28 29.91 1013 10 16 0.00 0.00
2:53 pm 14:53 Partly Cloudy 90 32.2 70 21.1 52 52 SSW 21 33 29.86 1011 10 16 0.00 0.00
3:53 pm 15:53 Mostly Sunny 90 32.2 69 20.6 50 50 SSW 18 30 29.83 1010 10 16 0.00 0.00
4:49 pm 16:49 Mostly Cloudy with Nearby Thunderstorms 88 31 68 20 52 52 WSW 15 24 29.85 1011 10 16 0.00 0.00
4:53 pm 16:53 Mostly Cloudy with Nearby Thunderstorms 83 28.3 67 19.4 59 59 WNW 25 41 29.90 1012 10 16 0.00 0.00
5:00 pm 17:00 Mostly Cloudy with Nearby Thunderstorms 72 22.2 66 18.9 82 82 WNW 20 31 29.91 1013 4 6 0.01 0.25
5:16 pm 17:16 Cloudy with Nearby Thunderstorms 70 21.1 66 18.9 87 87 W 21 33 29.94 1014 2 3 0.09 2.29
5:21 pm 17:21 Cloudy with Nearby Thunderstorms 70 21.1 66 18.9 87 87 W 9 15 29.94 1014 1 1 0.17 4.32
5:26 pm 17:26 Cloudy with Nearby Thunderstorms 70 21.1 66 18.9 87 87 W 14 22 29.94 1014 1 2 0.18 4.57
5:30 pm 17:30 Cloudy with Nearby Thunderstorms 70 21.1 66 18.9 87 87 WSW 12 19 29.94 1014 2 3 0.19 4.83
5:33 pm 17:33 Cloudy with Rain 70 21.1 66 18.9 87 87 W 9 15 29.94 1014 4 6 0.21 5.33
5:37 pm 17:37 Cloudy with Heavy Rain 70 21.1 66 18.9 87 87 VRB 6 9 29.94 1014 2 3 0.24 6.10
5:45 pm 17:45 Mostly Cloudy with Light Rain 70 21.1 66 18.9 87 87 W 6 9 29.94 1014 3 5 0.25 6.35
5:53 pm 17:53 Mostly Cloudy with Light Rain 70 21.1 66 18.9 87 87 WSW 9 15 29.97 1015 10 16 0.25 6.35
6:53 pm 18:53 Mostly Cloudy with Light Rain 70 21.1 67 19.4 90 90 WSW 5 7 29.99 1016 10 16 0.09 2.29
7:53 pm 19:53 Cloudy with Light Rain 70 21.1 67 19.4 90 90 SSW 5 7 29.97 1015 10 16 0.06 1.52
8:01 pm 20:01 Cloudy with Light Rain 70 21.1 67 19.4 90 90 SW 6 9 29.97 1015 10 16 0.00 0.03
8:53 pm 20:53 Mostly Clear 69 20.6 67 19.4 93 93 WSW 5 7 30.00 1016 10 16 0.00 0.03
9:28 pm 21:28 Mostly Cloudy 69 20.6 67 19.4 93 93 WSW 6 9 30.00 1016 10 16 0.00 0.00
9:53 pm 21:53 Partly Cloudy 69 20.6 67 19.4 93 93 Calm 30.03 1017 10 16 0.00 0.00
10:53 pm 22:53 Mostly Clear 69 20.6 66 18.9 90 90 W 3 6 30.05 1018 10 16 0.00 0.00
11:53 pm 23:53 Clear 69 20.6 65 18.3 87 87 W 6 9 30.07 1018 10 16 0.00 0.00

Powered by AerisWeather